Location: Unspecified
(0.0000°N, 0.0000°E)
Time: 05:26:54
(UTC+00:00)

RS-6 - Pass Details

Date: 30 September 2022
Orbit: 1636 x 1664 km, 83.0° (Epoch: 27 November)

Event Time Altitude Azimuth Distance (km) Brightness Sun altitude
Rises 03:48:13 0° 169° (S) 4,898 ? -30.4°
Reaches altitude 10° 03:51:26 10° 163° (SSE) 3,905 ? -29.6°
Maximum altitude 04:00:22 46° 92° (E) 2,118 ? -27.4°
Drops below altitude 10° 04:09:11 10° 23° (NNE) 3,875 ? -25.2°
Sets 04:12:19 0° 17° (NNE) 4,857 ? -24.4°
